COSMOS 1410 DEB, 44696

Orbit data source: Space-Track

COSMOS 1410 DEB, 44696 is space debris in LEO originally from a launch on Fri, 24 Sep 1982 UTC launched from the Plesetsk Missile And Space Complex (PKMTR). Debris objects in space refer to the collection of defunct objects orbiting the Earth. Examples of debris include non-operational satellites, rocket bodies, and fragments generated from explosions, collisions, or faulty payload assembly.

Loading next visibility...
Identifier
44696, 1982-096C
Orbit
LEO
Country
Flag of CISCIS
Related business
Manufacturer
Resehetnev ISS
Mission
Spacecraft
Bus & Motor
Unknown
Mass
Unknown
Launch date (UTC)
1982-09-24 (44 years ago)
Launch vehicle
Unknown
Launch site
Plesetsk Missile And Space Complex (PKMTR)
Object type
Payload
Rocket body
Debris
Shape & HBR
Unknown shape, 0.1 m
Radar Cross Section
Small (<0.1 m²)

Expand to show TLE details & history
Last TLE update: 1 month ago

TLE from 1 month ago
0 COSMOS 1410 DEB
1 44696U 82096C   26144.23184833  .00000055  00000-0  32782-3 0  9998
2 44696  82.6069 125.2520 0005089  18.2089 341.9172 12.42648836524494
Epoch: 2026-05-24T05:33Z
TLE epoch observation values (Epoch: 2026-05-24T05:33:51.695Z)
Latitude
-0.00005°
Longitude
159.94964°
Altitude
1,494.287 km
Speed
7.119 km/s
True Right ascension
08h 21m 00s
True Declination
0° 00' 00"
Sunlit
Object was in daylight at epoch
Visualization orbit readout
Latitude
Unknown
Longitude
Unknown
Altitude
Unknown
Speed
Unknown
Apparent Right ascension
Unknown
Apparent Declination
Unknown
Sunlit
N/A
Visualization observer readout
Local Sidereal Time
21:25:53
Azimuth
Unknown
Elevation
Unknown
Doppler factor
Unknown
Orbital elements
Apogee altitude
1,496.747 km
Perigee altitude
1,488.737 km
Semi-major axis
7,870.879 km
Eccentricity
0.00051
Inclination
82.6069°
RAAN
125.252°
Arg. of periapsis
18.2089°
True anomaly
341.89909°
Mean anomaly
341.9172°
Eccentric anomaly
341.90815°
Mean motion
3.1082 °/min
Orbital period
115.82 mins
BSTAR
0.00032782
Loading maneuver chart data...
Computing Atmospheric mass density...
Loading historical data...
Loading historical data...
Loading historical data...
Loading historical data...
Loading historical data...
Loading historical data...
Loading historical data...
Other satellites on launch #96 in the year 1982 (1982-09-24 UTC)

Documentation

Showing up to 5 results
|